Location: Albany
(35.0170°S, 117.8920°E)
Time: 16:32:47
(UTC+08:00)

Explorer 11/Cluster Stage 4 - Pass Details

Date: 25 January 2021
Orbit: 467 x 1257 km, 28.8° (Epoch: 02 March)

Event Time Altitude Azimuth Distance (km) Brightness Sun altitude
Rises 10:21:44 0° 283° (WNW) 3,314 9.5 59.2°
Reaches altitude 10° 10:24:37 10° 289° (WNW) 2,240 8.8 59.7°
Maximum altitude 10:29:24 39° 357° (N) 952 7.8 60.6°
Drops below altitude 10° 10:33:22 10° 66° (ENE) 1,842 9.1 61.3°
Sets 10:35:32 0° 74° (ENE) 2,654 9.7 61.7°
